Location: Bonningues
(50.7927°N, 2.0150°E)
Time: 05:39:00
(UTC+00:00)

YAOGAN 11 - Pass Details

Date: 08 August 2020
Orbit: 613 x 669 km, 98.3° (Epoch: 19 September)

Event Time Altitude Azimuth Distance (km) Brightness Sun altitude
Exits shadow 23:48:27 67° 128° (SE) 731 4.1 -23.4°
Maximum altitude 23:48:58 76° 73° (ENE) 695 4.2 -23.4°
Drops below altitude 10° 23:53:35 10° 348° (NNW) 2,108 7.8 -23.4°
Sets 23:55:49 0° 347° (NNW) 3,024 8.9 -23.4°
